Weather reports worldwide

Advertisment
Bonifati, Italy (16337): temperature & dewpoint: 14.10.2018 16:00:00 - 20.10.2018 16:00:00 (CEST)Bonifati, Italy (16337): wind speed: 14.10.2018 16:00:00 - 20.10.2018 16:00:00 (CEST)Bonifati, Italy (16337): wind direction: 14.10.2018 16:00:00 - 20.10.2018 16:00:00 (CEST)Bonifati, Italy (16337): reduced air pressure: 14.10.2018 16:00:00 - 20.10.2018 16:00:00 (CEST)Bonifati, Italy (16337): visibility: 14.10.2018 16:00:00 - 20.10.2018 16:00:00 (CEST)
Date & Time tt [°C] td [°C] ff [km/h] ff [kn] dd ppp [hPa] vv [km]
20.10.2018 16:00:00 - - - - - - -
20.10.2018 15:00:00 - - - - - - -
20.10.2018 14:00:00 21,8 12,9 9 5 W 1018,0 15
20.10.2018 13:00:00 - - - - - - -
20.10.2018 12:00:00 - - - - - - -
20.10.2018 11:00:00 22,2 11,6 4 2 N 1017,9 15
20.10.2018 10:00:00 - - - - - - -
20.10.2018 09:00:00 - - - - - - -
20.10.2018 08:00:00 17,2 10,8 15 8 ENE 1017,9 15
20.10.2018 07:00:00 - - - - - - -
20.10.2018 06:00:00 - - - - - - -
20.10.2018 05:00:00 - - - - - - -
20.10.2018 04:00:00 - - - - - - -
20.10.2018 03:00:00 - - - - - - -
20.10.2018 02:00:00 - - - - - - -
20.10.2018 01:00:00 - - - - - - -
20.10.2018 00:00:00 - - - - - - -
19.10.2018 23:00:00 - - - - - - -
19.10.2018 22:00:00 - - - - - - -
19.10.2018 21:00:00 - - - - - - -
19.10.2018 20:00:00 18,4 13,9 28 15 NE 1014,7 20
19.10.2018 19:00:00 - - - - - - -
19.10.2018 18:00:00 - - - - - - -
19.10.2018 17:00:00 19,6 14,6 28 15 NE 1014,1 20
19.10.2018 16:00:00 - - - - - - -
19.10.2018 15:00:00 - - - - - - -
19.10.2018 14:00:00 21,0 14,9 29 16 ENE 1013,4 20
19.10.2018 13:00:00 - - - - - - -
19.10.2018 12:00:00 - - - - - - -
19.10.2018 11:00:00 19,4 14,9 29 16 NE 1013,5 20
19.10.2018 10:00:00 - - - - - - -
19.10.2018 09:00:00 - - - - - - -
19.10.2018 08:00:00 16,8 14,3 34 18 NNE 1012,9 20
19.10.2018 07:00:00 - - - - - - -
19.10.2018 06:00:00 - - - - - - -
19.10.2018 05:00:00 - - - - - - -
19.10.2018 04:00:00 - - - - - - -
19.10.2018 03:00:00 - - - - - - -
19.10.2018 02:00:00 - - - - - - -
19.10.2018 01:00:00 - - - - - - -
19.10.2018 00:00:00 - - - - - - -
18.10.2018 23:00:00 - - - - - - -
18.10.2018 22:00:00 - - - - - - -
18.10.2018 21:00:00 - - - - - - -
18.10.2018 20:00:00 17,2 13,7 37 20 NE 1011,7 20
18.10.2018 19:00:00 - - - - - - -
18.10.2018 18:00:00 - - - - - - -
18.10.2018 17:00:00 19,0 14,5 29 16 NNE 1011,0 20
18.10.2018 16:00:00 - - - - - - -
18.10.2018 15:00:00 - - - - - - -
18.10.2018 14:00:00 20,4 14,3 34 18 NE 1010,7 25
18.10.2018 13:00:00 - - - - - - -
18.10.2018 12:00:00 - - - - - - -
18.10.2018 11:00:00 19,2 14,7 34 18 NE 1012,2 20
18.10.2018 10:00:00 - - - - - - -
18.10.2018 09:00:00 - - - - - - -
18.10.2018 08:00:00 17,0 14,5 46 25 NE 1011,6 20
18.10.2018 07:00:00 - - - - - - -
18.10.2018 06:00:00 - - - - - - -
18.10.2018 05:00:00 - - - - - - -
18.10.2018 04:00:00 - - - - - - -
18.10.2018 03:00:00 - - - - - - -
18.10.2018 02:00:00 - - - - - - -
18.10.2018 01:00:00 - - - - - - -
18.10.2018 00:00:00 - - - - - - -
17.10.2018 23:00:00 - - - - - - -
17.10.2018 22:00:00 - - - - - - -
17.10.2018 21:00:00 - - - - - - -
17.10.2018 20:00:00 17,8 15,8 28 15 NE 1014,4 20
17.10.2018 19:00:00 - - - - - - -
17.10.2018 18:00:00 - - - - - - -
17.10.2018 17:00:00 20,0 16,4 22 12 NE 1014,2 25
17.10.2018 16:00:00 - - - - - - -
17.10.2018 15:00:00 - - - - - - -
17.10.2018 14:00:00 22,8 16,8 9 5 NE 1014,7 25
17.10.2018 13:00:00 - - - - - - -
17.10.2018 12:00:00 - - - - - - -
17.10.2018 11:00:00 21,0 16,0 18 10 ENE 1015,7 25
17.10.2018 10:00:00 - - - - - - -
17.10.2018 09:00:00 - - - - - - -
17.10.2018 08:00:00 17,2 14,5 26 14 ENE 1016,2 25
17.10.2018 07:00:00 - - - - - - -
17.10.2018 06:00:00 - - - - - - -
17.10.2018 05:00:00 - - - - - - -
17.10.2018 04:00:00 - - - - - - -
17.10.2018 03:00:00 - - - - - - -
17.10.2018 02:00:00 - - - - - - -
17.10.2018 01:00:00 - - - - - - -
17.10.2018 00:00:00 - - - - - - -
16.10.2018 23:00:00 - - - - - - -
16.10.2018 22:00:00 - - - - - - -
16.10.2018 21:00:00 - - - - - - -
16.10.2018 20:00:00 18,0 15,6 18 10 NE 1016,9 18
16.10.2018 19:00:00 - - - - - - -
16.10.2018 18:00:00 - - - - - - -
16.10.2018 17:00:00 21,2 16,4 15 8 NE 1016,3 10
16.10.2018 16:00:00 - - - - - - -
16.10.2018 15:00:00 - - - - - - -
16.10.2018 14:00:00 21,6 15,2 9 5 E 1016,3 18
16.10.2018 13:00:00 - - - - - - -
16.10.2018 12:00:00 - - - - - - -
16.10.2018 11:00:00 18,8 14,5 22 12 S 1016,5 17
16.10.2018 10:00:00 - - - - - - -
16.10.2018 09:00:00 - - - - - - -
16.10.2018 08:00:00 16,6 14,6 28 15 NE 1016,1 17
16.10.2018 07:00:00 - - - - - - -
16.10.2018 06:00:00 - - - - - - -
16.10.2018 05:00:00 - - - - - - -
16.10.2018 04:00:00 - - - - - - -
16.10.2018 03:00:00 - - - - - - -
16.10.2018 02:00:00 - - - - - - -
16.10.2018 01:00:00 - - - - - - -
16.10.2018 00:00:00 - - - - - - -
15.10.2018 23:00:00 - - - - - - -
15.10.2018 22:00:00 - - - - - - -
15.10.2018 21:00:00 - - - - - - -
15.10.2018 20:00:00 17,4 15,2 28 15 N 1014,7 15
15.10.2018 19:00:00 - - - - - - -
15.10.2018 18:00:00 - - - - - - -
15.10.2018 17:00:00 17,8 15,3 34 18 W 1013,6 10
15.10.2018 16:00:00 - - - - - - -
15.10.2018 15:00:00 - - - - - - -
15.10.2018 14:00:00 17,8 16,1 29 16 ESE 1013,6 15
15.10.2018 13:00:00 - - - - - - -
15.10.2018 12:00:00 - - - - - - -
15.10.2018 11:00:00 17,8 15,6 29 16 SSE 1013,4 15
15.10.2018 10:00:00 - - - - - - -
15.10.2018 09:00:00 - - - - - - -
15.10.2018 08:00:00 15,8 14,3 37 20 E 1013,2 15
15.10.2018 07:00:00 - - - - - - -
15.10.2018 06:00:00 - - - - - - -
15.10.2018 05:00:00 - - - - - - -
15.10.2018 04:00:00 - - - - - - -
15.10.2018 03:00:00 - - - - - - -
15.10.2018 02:00:00 - - - - - - -
15.10.2018 01:00:00 - - - - - - -
15.10.2018 00:00:00 - - - - - - -
14.10.2018 23:00:00 - - - - - - -
14.10.2018 22:00:00 - - - - - - -
14.10.2018 21:00:00 - - - - - - -
14.10.2018 20:00:00 15,8 15,8 35 19 NNE 1014,9 15
14.10.2018 19:00:00 - - - - - - -
14.10.2018 18:00:00 - - - - - - -
14.10.2018 17:00:00 17,6 14,1 26 14 SE 1014,7 15
14.10.2018 16:00:00 - - - - - - -

tt = temperature
td = dewpoint
ff = wind speed
dd = wind direction
ppp = reduced air pressure
vv = visibility

Next stations